Location: Grand Moustoir
(47.8355°N, 3.3120°W)
Time: 12:54:29
(UTC+00:00)

STARLINK-28 - Pass Details

Date: 20 January 2020
Orbit: 402 x 406 km, 53.0° (Epoch: 28 February)

Event Time Altitude Azimuth Distance (km) Brightness Sun altitude
Exits shadow 05:06:36 10° 143° (SE) 1,473 6.2 -27.7°
Reaches altitude 10° 05:06:40 10° 142° (SE) 1,468 6.2 -27.7°
Drops below altitude 10° 05:07:56 10° 119° (ESE) 1,471 6.5 -27.5°
Enters shadow 06:08:29 -64° 238° (WSW) 11,895 10.4 -17.4°
Maximum altitude 06:43:07 63° 148° (SSE) 462 3.4 -11.8°
